Flag for U.S.A. Weather past 2 weeks in Hollywood, California, U.S.A.

Now
68 °F

Overcast.


Feels Like: 68 °F
Forecast: 62 / 79 °F
Wind: No wind

Location: Van Nuys Airport

Current Time: Sep 20, 2014 at 11:53:43 AM

Latest Report: Sep 20, 2014 at 10:51 AM


Visibility: 8 mi

Pressure: 29.95 "Hg

Humidity: 76%

Dew point: 60 °F

Location of HollywoodLocation

Historic Weather in Hollywood — Graph

°F

Hollywood temperature yesterday

Maximum temperature yesterday: 83 °F (at 3:51 PM)
Minimum temperature yesterday: 66 °F (at 3:58 AM)
Average temperature yesterday: 73 °F

Past Weeks' High & Low Weather Summary

 TemperatureHumidityPressure
High106 °F (Sep 14, 12:51 PM)85% (Sep 20, 5:51 AM)29.95 "Hg (Sep 20, 5:51 AM)
Low62 °F (Sep 10, 6:51 AM)11% (Sep 14, 12:51 PM)29.64 "Hg (Sep 16, 4:51 PM)
Average83 °F40%29.79 "Hg
* Reported Sep 5 10:51 AM — Sep 20 10:51 AM, Hollywood, Weather by CustomWeather, © 2014

Note: Actual official high and low records may vary slightly from our data, if they occured in-between our weather recording intervals... More about our weather records

Advertising

Hollywood weather history for previous 24 hours

 ConditionsComfort  
Time TempWeatherWind HumidityBarometerVisibility
10:51 AM
Sep 20
68 °FOvercast.No wind76%29.95 "Hg8 mi
5:51 AM65 °FClear.3 mph85%29.89 "Hg10 mi
4:51 AM66 °FClear.No wind81%29.88 "Hg10 mi
3:51 AM66 °FClear.No wind81%29.87 "Hg10 mi
2:51 AM67 °FClear.No wind79%29.87 "Hg10 mi
1:51 AM68 °FClear.No wind76%29.87 "Hg10 mi
12:51 AM68 °FClear.No wind70%29.87 "Hg10 mi
11:51 PM
Sep 19
69 °FClear.No wind68%29.87 "Hg10 mi
10:51 PM70 °FClear.No wind66%29.86 "Hg10 mi
9:51 PM71 °FClear.3 mph63%29.86 "Hg10 mi
8:51 PM73 °FClear.No wind59%29.84 "Hg10 mi
7:51 PM74 °FSunny.No wind56%29.83 "Hg10 mi
6:51 PM76 °FSunny.7 mph52%29.81 "Hg10 mi
5:51 PM79 °FSunny.9 mph47%29.81 "Hg10 mi
4:51 PM81 °FSunny.10 mph44%29.80 "Hg10 mi
3:51 PM83 °FSunny.10 mph43%29.80 "Hg10 mi
2:51 PM81 °FSunny.6 mph45%29.81 "Hg10 mi
1:51 PM81 °FSunny.3 mph45%29.83 "Hg10 mi
12:51 PM78 °FScattered clouds.6 mph50%29.85 "Hg10 mi
11:51 AM76 °FScattered clouds.6 mph56%29.88 "Hg10 mi
Weather by CustomWeather, © 2014

See weather overviewHow to use our weather pages